Regional Weather Roundup
Issued by NWS

Home | Current Version | Previous Version | Graphics & Text | Print | Product List | Glossary On
Versions: 1 2 3 4 5 6 7 8 9 10 11 12 13 14 15 16 17 18 19 20 21 22 23 24 25 26 27 28 29 30 31 32 33 34 35 36 37 38 39 40 41 42 43 44 45 46 47 48 49 50
000
ASUS43 KDMX 290506
RWRIA

WEATHER ROUNDUP FOR IOWA
NATIONAL WEATHER SERVICE DES MOINES IA
1200 AM CDT SAT APR 29 2017

NOTE: "FAIR" INDICATES FEW OR NO CLOUDS BELOW 12,000 FEET WITH NO
SIGNIFICANT WEATHER AND/OR OBSTRUCTIONS TO VISIBILITY.

* - THESE STATIONS ARE NOT NWS STATIONS...THUS NOT UNDER NWS
QUALITY CONTROL.  THEY ALSO DO NOT REPORT WEATHER SUCH
AS PRECIPITATION OR FOG.

IAZ001>003-012>014-020>022-031>034-043>046-290600-
   NORTHWEST IOWA

CITY           SKY/WX    TMP DP  RH WIND       PRES   REMARKS
CARROLL *      CLOUDY    41  41 100 N8        30.08S
CHEROKEE *     CLOUDY    40  35  82 N3        30.12R
DENISON *      CLOUDY    43  37  81 N7        30.09S
LE MARS *      CLOUDY    39  34  81 CALM      30.13R
ORANGE CITY *  CLOUDY    41  34  75 NE5       30.12R
SHELDON *      CLOUDY    37  32  81 NE9       30.10R WCI  31
SIOUX CITY     CLOUDY    45  34  65 CALM      30.13R
SPENCER        CLOUDY    37  32  82 NE5       30.12R WCI  33
$$

IAZ055>058-069>071-079>083-090>094-290600-
   SOUTHWEST IOWA

CITY           SKY/WX    TMP DP  RH WIND       PRES   REMARKS
ATLANTIC *     CLOUDY    43  39  87 NE8       30.06R
AUDUBON *      CLOUDY    43  37  81 NE8       30.07R
CLARINDA *     CLOUDY    45  41  87 NE10      30.05F
COUNCIL BLFS * CLOUDY    43  43 100 NE8       30.07R
CRESTON *      CLOUDY    43  41  93 NE12      30.05R
HARLAN  *      CLOUDY    43  41  93 NE10G16   30.10R
LAMONI         CLOUDY    43  42  97 NE12      30.00R
RED OAK *      CLOUDY    43  39  87 NE9       30.05S
SHENANDOAH *   CLOUDY    43  41  93 N10       30.06R
$$

IAZ047>049-059>061-072>074-084-290600-
   CENTRAL IOWA

CITY           SKY/WX    TMP DP  RH WIND       PRES   REMARKS
AMES           CLOUDY    43  39  86 NE9       30.07R
ANKENY *       CLOUDY    43  39  87 N9        30.07R
BOONE *        CLOUDY    43  41  93 N10       30.06R
CHARITON *     CLOUDY    43  41  93 N8        30.02R
DES MOINES     CLOUDY    45  39  79 NE10      30.05R
GRINNELL*      CLOUDY    43  39  86 N12       30.04R
KNOXVILLE *    CLOUDY    45  39  81 NE10G17   30.02R
MARSHALLTOWN   CLOUDY    43  39  86 NE10      30.05R
NEWTON *       CLOUDY    43  39  87 NE10      30.03R
PELLA *        CLOUDY    44  39  85 NE6       30.03S
PERRY *        CLOUDY    43  39  87 N8        30.06R
$$

IAZ004>006-015-016-023>025-035-036-290600-
   NORTH CENTRAL IOWA

CITY           SKY/WX    TMP DP  RH WIND       PRES   REMARKS
ALGONA *       CLOUDY    39  34  81 CALM      30.12R
CLARION *      CLOUDY    41  39  93 N5        30.11R
ESTHERVILLE    CLOUDY    34  32  92 N6        30.11R WCI  29
FORT DODGE *   CLOUDY    43  34  70 N7        30.10R
MASON CITY     CLOUDY    38  32  79 N6        30.10R WCI  33
FOREST CITY *    N/A     37  30  75 CALM      30.11R
WEBSTER CITY * CLOUDY    43  39  87 N9        30.07R
IOWA FALLS *   CLOUDY    43  38  83 N8        30.09R
$$

IAZ007>011-017>019-026>030-037>042-050>054-066-290600-
   NORTHEAST IOWA

CITY           SKY/WX    TMP DP  RH WIND       PRES   REMARKS
CEDAR RAPIDS   CLOUDY    44  43  96 NE9       30.01F
CHARLES CITY * MOCLDY    41  37  87 N6        30.08R
CLINTON *      LGT RAIN  45  44  97 NE13      30.02R FOG
DECORAH *      CLOUDY    43  36  75 N5        30.07R
DUBUQUE        CLOUDY    44  41  89 NE14      30.03F
MONTICELLO *   CLOUDY    45  41  87 NE9       30.03S
OELWEIN *      CLOUDY    43  41  93 NE10      30.06R
WATERLOO       CLOUDY    42  38  85 N7        30.05S
$$

IAZ064-065-067-068-078-290600-
   EAST CENTRAL IOWA

CITY           SKY/WX    TMP DP  RH WIND       PRES   REMARKS
DAVENPORT      CLOUDY    45  44  97 NE15      30.00S
IOWA CITY      CLOUDY    45  42  89 NE14      30.01F
MT. PLEASANT * CLOUDY    45  45 100 N14       29.96F FOG
MUSCATINE *    CLOUDY    46  45  93 NE14      30.00F
QUAD CITIES    CLOUDY    49  45  86 VRB6      29.99R
$$

IAZ062-063-075>077-085>089-095>099-290600-
   SOUTHEAST IOWA

CITY           SKY/WX    TMP DP  RH WIND       PRES   REMARKS
BURLINGTON     CLOUDY    50  49  96 N17       29.92F FOG
FAIRFIELD *    CLOUDY    45  45 100 NE14G21   29.98F FOG
FORT MADISON * CLOUDY    48  48 100 N10       29.92F FOG
KEOKUK *       CLOUDY    48  48 100 N12       29.89F FOG
OSKALOOSA *    CLOUDY    42  41  96 N13       30.02R FOG
CENTERVILLE *  LGT RAIN  43  41  93 N7        30.00R
OTTUMWA        CLOUDY    44  43  96 NE12      30.00F
WASHINGTON *   CLOUDY    45  45 100 NE15      30.00F FOG
$$

ABBREVIATIONS USED IN REMARKS
   TC - TEMPERATURES IN CELSIUS
  WCI - WIND CHILL INDEX
   HX - HEAT INDEX
  VSB - VISIBILITY
$$





USA.gov is the U.S. government's official web portal to all federal, state and local government web resources and services.